Cosmos 2227 Rocket - Orbit

View from above orbital plane
View from above orbital plane
View from above satellite
View from above satellite

Ground track
Ground track

The orbit data is extracted from the following two-line orbital elements,

1 22285U 92093B   13137.42902023  .00000105  00000-0  79217-4 0   367
2 22285 071.0224 101.3436 0006201 253.3469 106.6973 14.14854406 51528
Epoch (UTC): 17 May 2013 10:17:47
Eccentricity: 0.0006201
inclination: 71.0224°
perigee height: 838 km
apogee height: 847 km
right ascension of ascending node: 101.3436°
argument of perigee: 253.3469°
revolutions per day: 14.14854406
mean anomaly at epoch: 106.6973°
orbit number at epoch: 5152

The dashed part of the orbit path shows where the satellite is in the earth's shadow,  

Developed and maintained by Chris Peat, Heavens-Above GmbH. Please read the updated FAQ before sending e-mail. Imprint. DLR